Jerome, ID

10:28 AM MST on December 14, 2017 (GMT -0700)
Jerome County

Weather History for KJER - April, 2014

Change the Weather History Date:

Sunday, April 6, 2014

  Actual Average Record
Temperature  
Mean Temperature 49 °F 45 °F  
Max Temperature 59 °F 56 °F 85 °F (1930)
Min Temperature 39 °F 34 °F 16 °F (1956)
Degree Days  
Heating Degree Days 16 20  
Month to date heating degree days 139 123  
Since 1 July heating degree days 5507 5779  
Cooling Degree Days 0 0  
Month to date cooling degree days 0 0  
Year to date cooling degree days 0 0  
Moisture  
Dew Point 34 °F    
Average Humidity 61    
Maximum Humidity 86    
Minimum Humidity 35    
Precipitation  
Precipitation T in 0.04 in 0.66 in (2006)
Month to date precipitation 0.10 0.23  
Year to date precipitation 3.75 3.25  
Sea Level Pressure  
Sea Level Pressure 30.12 in    
Wind  
Wind Speed 18 mph (WSW)    
Max Wind Speed 39 mph    
Max Gust Speed 46 mph    
Visibility 10 miles    
Events Rain    
T = Trace of Precipitation, MM = Missing Value Source: NWS Daily Summary

Daily Weather History Graph

Daily Weather History Graph

Search for Another Location

Airport or City:

Trip Planner

Search our weather history database for the weather conditions in past years. The results will help you decide how hot, cold, wet, or windy it might be!

Date:

Astronomy

Apr. 06, 2014 Rise Set
Actual Time 7:11 AM MDT 8:09 PM MDT
Civil Twilight 6:42 AM MDT 8:38 PM MDT
Nautical Twilight 6:08 AM MDT 9:13 PM MDT
Astronomical Twilight 5:32 AM MDT 9:49 PM MDT
Moon 12:11 PM MDT (4/6) 2:13 AM MDT (4/6)
Length of Visible Light 13h 56m
Length of Day
12h 58m
Waxing Crescent, 44% of the Moon is Illuminated
Apr 6
Waxing Crescent
Apr 7
First Quarter
Apr 15
Full
Apr 22
Last Quarter
Apr 29
New

Hourly Weather History & Observations

Time (MDT) Temp. Windchill Dew Point Humidity Pressure Visibility Wind Dir Wind Speed Gust Speed Precip Events Conditions
12:53 AM 39.9 °F 35.8 °F 30.9 °F 70% 30.09 in 10.0 mi WSW 5.8 mph - N/A   Clear
1:53 AM 39.9 °F 34.5 °F 30.9 °F 70% 30.08 in 10.0 mi SW 8.1 mph - N/A   Mostly Cloudy
2:53 AM 39.0 °F 35.7 °F 30.9 °F 73% 30.08 in 10.0 mi SSW 4.6 mph - N/A   Mostly Cloudy
3:53 AM 39.9 °F 36.7 °F 32.0 °F 73% 30.08 in 10.0 mi SSW 4.6 mph - N/A   Overcast
4:53 AM 39.0 °F 34.0 °F 32.0 °F 76% 30.08 in 10.0 mi SSW 6.9 mph - N/A   Overcast
5:53 AM 41.0 °F 33.9 °F 35.1 °F 79% 30.09 in 10.0 mi SW 12.7 mph - 0.00 in Rain Light Rain
6:25 AM 41.0 °F 35.8 °F 35.1 °F 79% 30.10 in 10.0 mi SW 8.1 mph - 0.00 in   Overcast
6:53 AM 39.9 °F 35.1 °F 36.0 °F 86% 30.10 in 10.0 mi SW 6.9 mph - 0.00 in   Overcast
7:13 AM 39.9 °F 32.9 °F 37.0 °F 89% 30.10 in 10.0 mi SSW 11.5 mph - 0.00 in Rain Light Rain
7:40 AM 41.0 °F 33.9 °F 37.0 °F 86% 30.11 in 10.0 mi SW 12.7 mph - 0.00 in   Overcast
7:53 AM 41.0 °F 33.9 °F 37.0 °F 86% 30.12 in 10.0 mi SW 12.7 mph - 0.00 in   Overcast
8:53 AM 44.1 °F 37.4 °F 39.0 °F 82% 30.13 in 10.0 mi SW 13.8 mph - N/A   Mostly Cloudy
9:53 AM 46.0 °F 38.5 °F 37.9 °F 73% 30.13 in 10.0 mi WSW 19.6 mph 28.8 mph N/A   Scattered Clouds
10:33 AM 48.0 °F - 37.9 °F 68% 30.14 in 10.0 mi West 21.9 mph - N/A   Mostly Cloudy
10:53 AM 48.9 °F - 37.9 °F 66% 30.13 in 10.0 mi WSW 24.2 mph 29.9 mph N/A   Mostly Cloudy
11:21 AM 50.0 °F - 37.0 °F 61% 30.13 in 10.0 mi West 25.3 mph 31.1 mph N/A   Mostly Cloudy
11:43 AM 50.0 °F - 37.0 °F 61% 30.13 in 10.0 mi West 26.5 mph 32.2 mph N/A   Mostly Cloudy
11:53 AM 51.1 °F - 37.9 °F 61% 30.14 in 10.0 mi WSW 21.9 mph 34.5 mph N/A   Mostly Cloudy
12:53 PM 53.1 °F - 37.0 °F 55% 30.13 in 10.0 mi WSW 26.5 mph 34.5 mph N/A   Mostly Cloudy
1:53 PM 55.9 °F - 36.0 °F 47% 30.10 in 10.0 mi West 26.5 mph 39.1 mph N/A   Scattered Clouds
2:53 PM 55.9 °F - 33.1 °F 42% 30.09 in 10.0 mi WSW 31.1 mph 42.6 mph N/A   Clear
3:53 PM 57.9 °F - 30.9 °F 36% 30.09 in 10.0 mi West 34.5 mph 46.0 mph N/A   Partly Cloudy
4:53 PM 55.9 °F - 28.9 °F 36% 30.10 in 10.0 mi West 29.9 mph 43.7 mph N/A   Mostly Cloudy
5:53 PM 55.0 °F - 30.9 °F 40% 30.11 in 10.0 mi West 29.9 mph 43.7 mph N/A   Mostly Cloudy
6:53 PM 54.0 °F - 32.0 °F 43% 30.12 in 10.0 mi WSW 24.2 mph 38.0 mph N/A   Mostly Cloudy
7:53 PM 52.0 °F - 32.0 °F 47% 30.14 in 10.0 mi West 24.2 mph 32.2 mph N/A   Clear
8:53 PM 50.0 °F - 32.0 °F 50% 30.14 in 10.0 mi West 24.2 mph 31.1 mph N/A   Clear
9:53 PM 48.9 °F - 30.9 °F 50% 30.19 in 10.0 mi West 11.5 mph - N/A   Clear
10:53 PM 46.0 °F 41.4 °F 32.0 °F 58% 30.20 in 10.0 mi SW 9.2 mph - N/A   Clear
11:53 PM 45.0 °F 38.5 °F 32.0 °F 60% 30.21 in 10.0 mi WSW 13.8 mph - N/A   Clear